Weather History for HELX - March, 2013

Change the Weather History Date:

Saturday, March 2, 2013

  Actual Average Record
Temperature  
Mean Temperature 73 °F -  
Max Temperature 90 °F 82 °F 98 °F (2004)
Min Temperature 56 °F 54 °F 46 °F (2009)
Cooling Degree Days 8    
Growing Degree Days 23 (Base 50)    
Moisture  
Dew Point 42 °F    
Average Humidity 32    
Maximum Humidity 45    
Minimum Humidity 14    
Precipitation  
Precipitation 0.00 in 0.00 in - ()
Sea Level Pressure  
Sea Level Pressure 29.89 in    
Wind  
Wind Speed 1 mph ()    
Max Wind Speed 8 mph    
Max Gust Speed -    
Visibility 3.9 miles    
Events      
Averages and records for this station are not official NWS values.
T = Trace of Precipitation, MM = Missing Value Source: Averaged Metar Reports

Daily Weather History Graph

Daily Weather History Graph

Search for Another Location

Airport or City:

Trip Planner

Search our weather history database for the weather conditions in past years. The results will help you decide how hot, cold, wet, or windy it might be!

Date:

Astronomy

Mar. 02, 2013 Rise Set
Actual Time 6:11 AM EET 5:51 PM EET
Civil Twilight 5:48 AM EET 6:14 PM EET
Nautical Twilight 5:21 AM EET 6:41 PM EET
Astronomical Twilight 4:55 AM EET 7:07 PM EET
Moon 10:32 PM EET (3/2) 8:58 AM EET (3/2)
Length of Visible Light 12h 26m
Length of Day
11h 40m
Waning Gibbous, 77% of the Moon is Illuminated
Mar 2
Waning Gibbous
Mar 4
Last Quarter
Mar 11
New
Mar 19
First Quarter
Mar 27
Full

Hourly Weather History & Observations

Time (EET) Temp. Dew Point Humidity Pressure Visibility Wind Dir Wind Speed Gust Speed Precip Events Conditions
12:00 AM 64.4 °F 37.4 °F 37% 29.92 in - Calm Calm - N/A   Clear
1:00 AM 64.4 °F 33.8 °F 32% 29.92 in - Calm Calm - N/A   Clear
2:00 AM 62 °F 33 °F 22% 29.91 in 6 mi SSE 2.3 mph - -  
2:00 AM 62.6 °F 33.8 °F 34% 29.89 in - SSE 2.3 mph - N/A   Clear
3:00 AM 62.6 °F 35.6 °F 37% 29.89 in - Calm Calm - N/A   Clear
4:00 AM 59.0 °F 32.0 °F 36% 29.89 in - SSE 2.3 mph - N/A   Clear
5:00 AM 59.0 °F 37.4 °F 45% 29.89 in - Calm Calm - N/A   Clear
6:00 AM 57.2 °F 35.6 °F 44% 29.89 in - Calm Calm - N/A   Clear
7:00 AM 59.0 °F 35.6 °F 42% 29.92 in - ENE 3.5 mph - N/A   Clear
8:00 AM 63 °F 40 °F 31% 29.92 in 6 mi NNW 2.3 mph - -  
8:00 AM 62.6 °F 41.0 °F 45% 29.92 in - NNW 2.3 mph - N/A   Clear
9:00 AM 69.8 °F 42.8 °F 38% 29.92 in - NE 3.5 mph - N/A   Clear
10:00 AM 75.2 °F 48.2 °F 38% 29.95 in 3.7 mi Calm Calm - N/A   Unknown
11:00 AM 78.8 °F 48.2 °F 34% 29.95 in 2.5 mi NNW 2.3 mph - N/A   Haze
12:00 PM - - N/A% 29.92 in 3.7 mi North - - N/A   Unknown
1:00 PM 86.0 °F 46.4 °F 25% 29.89 in 3.7 mi NW 2.3 mph - N/A   Unknown
2:00 PM 89 °F 46 °F 14% 29.86 in 4 mi WNW 2.3 mph - -   Haze
2:00 PM 89.6 °F 46.4 °F 22% 29.86 in 3.7 mi WNW 2.3 mph - N/A   Unknown
3:00 PM 89.6 °F 44.6 °F 21% 29.86 in 3.7 mi NW 2.3 mph - N/A   Unknown
4:00 PM 89.6 °F 48.2 °F 24% 29.83 in 3.7 mi West 4.6 mph - N/A   Unknown
5:00 PM 86.0 °F 50.0 °F 29% 29.86 in 3.7 mi West 3.5 mph - N/A   Unknown
6:00 PM 82.4 °F 50.0 °F 32% 29.86 in 3.7 mi Calm Calm - N/A   Unknown
7:00 PM 77.0 °F 50.0 °F 39% 29.86 in 3.7 mi Calm Calm - N/A   Unknown
8:00 PM 78 °F 46 °F 22% 29.89 in 4 mi South 2.3 mph - -   Haze
8:00 PM 77.0 °F 46.4 °F 34% 29.89 in 3.7 mi South 2.3 mph - N/A   Unknown
9:00 PM 75.2 °F 42.8 °F 31% 29.89 in 3.7 mi South 1.2 mph - N/A   Unknown
10:00 PM 73.4 °F 42.8 °F 33% 29.89 in 3.7 mi Calm Calm - N/A   Unknown
11:00 PM 73.4 °F 41.0 °F 31% 29.89 in 3.7 mi SE 8.1 mph - N/A   Unknown